Lapse_Rate
-1.9 -0.9 0.3 2.3 6.3 6.5 6.5 6.5 6.5 6.5 6.5 6.9 6.6 6.7 6.6 6.9 6.5 6.5 7.3 7.4 7.6 7.6 7.2 5.5 3.8 3.0 2.1 2.2 2.1 2.2 2.1 2.4 5.3 4.8 4.1 3.9 3.9 3.9 4.0 4.2 4.3 4.5 5.0 5.2 5.1 5.2 5.6 5.4 4.9
-2.3 -0.5 1.5 2.4 6.5 6.5 6.5 6.5 6.5 6.5 6.8 6.1 7.4 7.3 6.8 6.6 7.6 7.8 7.5 7.1 6.8 6.1 5.6 4.5 3.9 3.1 3.1 2.9 2.7 2.0 2.8 2.9 3.4 5.4 4.9 4.2 4.1 4.1 4.1 4.3 4.3 4.6 5.0 5.1 5.4 5.4 5.7 5.2 4.7
-1.1 1.0 3.2 6.5 6.5 6.5 6.5 6.5 6.5 6.7 7.3 6.6 6.9 7.4 7.4 7.0 8.1 7.8 6.9 7.0 6.4 5.5 5.0 4.1 3.1 2.7 3.0 3.5 3.3 2.2 2.2 2.4 2.6 2.9 5.4 4.7 4.6 4.4 4.6 4.5 4.7 4.7 4.8 5.1 5.5 5.6 5.4 5.0 4.4
2.5 2.8 2.5 6.5 6.5 6.5 6.5 6.5 6.5 6.5 6.8 7.4 6.9 6.6 7.8 8.0 7.6 7.3 7.5 7.4 6.2 5.7 5.1 4.0 3.2 2.7 2.4 3.3 3.4 3.0 2.1 2.7 2.2 2.6 2.9 5.9 5.6 5.1 4.9 5.0 4.7 4.9 5.0 5.1 5.3 5.5 5.1 4.7 4.4
2.6 2.3 6.5 6.5 6.5 6.5 6.5 6.5 6.6 6.5 6.7 6.8 7.3 6.7 7.0 7.8 7.6 7.5 7.4 7.7 6.5 6.2 5.3 4.2 3.4 2.7 2.4 3.0 3.2 3.1 2.9 1.8 2.2 1.7 1.8 2.0 5.8 5.3 5.3 5.2 5.2 4.9 5.3 5.1 5.4 4.9 5.5 4.7 4.4
3.2 1.9 6.5 6.5 6.5 6.5 6.4 6.7 6.9 6.9 7.2 6.6 6.9 6.8 6.6 7.3 7.5 7.2 7.4 7.2 7.3 6.4 5.2 4.6 3.5 2.8 2.8 2.9 3.3 3.5 3.3 3.0 2.7 2.0 1.2 1.3 1.8 5.0 5.4 5.6 5.5 5.8 5.2 5.2 5.4 5.1 5.4 4.5 4.4
5.8 6.5 6.5 6.5 6.5 6.5 6.5 7.0 6.8 6.8 6.9 6.7 6.3 6.6 7.0 7.2 7.3 7.0 6.9 7.0 6.9 7.1 5.3 4.6 4.0 3.2 3.1 3.7 4.2 3.9 3.7 3.2 2.9 2.5 1.5 1.0 1.3 1.3 4.6 5.7 5.8 5.7 5.8 5.1 5.3 5.0 4.7 4.6 4.3
3.8 5.7 6.5 6.5 6.5 6.5 6.4 7.0 7.1 7.0 6.8 8.0 7.3 6.4 6.0 6.8 7.2 6.7 6.7 6.0 6.3 7.1 7.1 4.9 5.0 4.0 3.6 4.2 4.6 5.2 5.5 5.1 3.0 2.4 2.2 1.2 0.5 0.6 1.4 3.7 6.0 5.9 5.7 5.0 5.2 4.4 3.9 4.3 4.1
6.0 6.5 6.5 6.5 6.5 6.5 6.3 6.5 7.5 7.9 7.3 7.3 7.2 6.9 7.4 7.8 7.2 6.6 6.5 6.2 6.2 6.6 7.1 6.4 5.6 4.7 4.6 5.5 5.4 5.2 6.0 5.5 4.7 2.9 2.1 2.0 0.8 0.1 0.5 1.3 3.4 6.1 5.6 5.1 4.4 4.2 3.6 4.1 4.1
4.5 6.5 6.5 6.4 6.4 6.5 6.8 6.8 7.1 6.8 6.8 6.6 7.0 7.3 7.6 7.5 6.9 6.4 6.5 6.4 6.4 6.6 7.0 7.1 6.2 5.9 4.8 5.8 5.7 6.0 5.8 6.1 6.0 5.4 1.8 3.6 1.9 0.9 0.8 0.5 1.0 1.6 6.3 5.2 4.0 3.9 4.1 3.8 3.6
5.6 6.5 6.4 6.4 6.8 7.1 6.3 6.5 6.3 6.1 6.5 6.1 6.4 6.6 6.9 6.7 6.3 6.1 6.2 6.3 5.7 6.1 7.0 7.0 6.7 6.5 5.9 6.0 6.3 6.4 6.6 6.5 6.7 7.3 6.9 5.2 2.8 0.6 0.5 0.3 0.5 0.2 2.0 5.4 4.2 3.3 3.8 3.0 3.5
6.5 6.5 6.6 6.7 6.3 6.8 6.4 6.2 6.1 5.9 6.2 6.8 6.5 6.8 6.5 6.1 6.0 6.1 5.9 5.7 6.0 5.8 6.8 6.8 7.0 6.7 6.9 7.1 6.9 7.3 7.1 7.2 7.1 7.7 5.9 4.6 3.4 1.2 2.3 1.0 0.5 0.2 0.3 2.3 4.6 3.9 3.2 3.6 3.5
6.5 6.2 6.7 6.7 6.6 6.3 6.9 5.9 5.8 6.0 6.4 6.6 7.3 6.7 5.9 5.7 5.8 5.9 5.8 5.7 5.5 5.8 6.1 5.9 7.1 7.4 7.6 7.3 7.8 7.4 7.7 7.1 7.0 6.4 5.6 4.5 4.1 3.2 4.2 2.0 1.9 0.6 -0.5 0.2 3.9 4.4 3.8 4.3 4.3
6.4 6.6 6.3 5.8 6.5 6.8 6.5 6.1 5.9 6.2 6.3 6.1 6.4 5.4 5.2 5.5 6.0 5.9 5.5 5.6 5.3 6.2 6.4 6.0 6.7 7.4 7.7 7.3 7.6 7.7 7.7 7.8 7.7 5.9 5.2 5.0 4.4 3.3 3.5 3.5 3.7 1.6 1.5 0.7 0.7 4.7 4.4 4.4 4.4
6.2 6.5 6.2 5.8 5.7 6.3 6.3 6.4 6.5 6.1 6.2 5.8 5.4 5.5 5.5 5.7 5.4 5.7 5.5 5.9 5.3 5.9 5.9 6.3 8.1 7.7 7.6 6.9 7.6 7.8 8.1 7.7 7.6 6.9 6.2 4.9 4.7 3.8 3.4 3.3 3.5 2.1 2.1 1.7 1.5 4.3 4.4 3.9 4.3
6.5 6.5 6.5 6.3 5.7 6.3 5.8 6.5 6.0 5.8 5.7 5.2 5.1 5.3 5.4 6.1 5.8 5.8 5.6 5.9 5.7 5.6 5.7 6.1 7.6 7.2 7.7 6.9 7.6 7.8 8.1 8.0 7.3 7.3 6.3 5.7 5.2 4.8 4.0 3.5 3.3 2.9 2.6 1.8 1.9 1.9 4.7 3.9 3.8
6.5 6.5 6.5 6.5 5.4 6.3 6.2 6.5 6.1 6.1 5.9 5.3 4.4 4.6 5.5 5.1 5.3 5.4 5.7 5.6 6.0 5.2 5.6 5.9 6.0 6.3 6.8 7.3 7.5 7.8 7.6 7.7 7.6 7.7 6.9 6.6 6.4 5.3 6.0 5.4 3.9 4.2 3.1 2.0 1.6 1.7 2.9 4.3 3.2
6.5 6.5 6.5 6.5 6.5 6.5 6.5 6.5 5.8 5.5 5.1 4.8 4.2 4.3 4.8 5.1 6.0 6.2 6.1 5.7 5.8 5.1 5.5 5.8 6.2 6.1 6.8 7.1 7.3 7.5 7.4 7.6 7.8 7.6 7.2 7.1 6.6 7.0 7.7 6.4 4.9 4.4 4.2 4.0 2.6 1.1 1.7 3.6 4.4
6.5 6.5 6.5 6.5 6.5 6.5 6.5 6.5 6.5 5.0 4.7 4.8 4.7 4.6 5.0 5.5 5.9 5.9 5.7 5.6 5.4 5.4 5.7 5.8 5.9 5.8 5.6 6.4 6.7 7.2 7.4 6.7 7.0 7.5 7.1 6.7 7.3 9.0 8.6 7.4 5.7 4.9 4.9 4.4 4.1 3.0 2.1 1.9 5.0
6.5 6.5 6.5 6.5 6.5 6.5 6.5 6.5 6.5 5.2 5.7 4.9 5.1 4.8 4.8 4.9 5.3 6.2 5.8 5.1 4.9 5.1 5.4 5.6 5.8 6.0 6.0 5.9 6.2 7.2 7.7 6.8 7.0 6.8 6.9 6.4 6.6 8.0 9.2 8.5 7.1 6.0 6.3 6.1 4.9 4.4 2.0 3.3 3.4
6.5 6.5 6.5 6.5 6.5 6.5 6.5 6.5 6.5 6.2 5.9 5.7 5.3 5.2 5.2 5.3 5.4 5.7 6.0 5.2 4.7 4.8 4.9 5.6 5.8 6.0 5.8 6.0 6.4 7.3 7.7 7.1 6.4 6.1 6.3 7.0 7.7 8.4 8.4 8.5 8.5 7.1 6.6 6.6 6.6 5.5 4.7 3.5 1.8
6.5 6.5 6.5 6.5 6.5 6.5 6.5 6.5 6.5 6.5 6.5 5.8 4.9 4.3 4.6 5.0 5.3 5.7 5.5 5.6 5.3 5.2 4.9 5.5 6.1 6.1 6.8 6.4 5.6 6.1 6.7 6.1 6.0 6.3 8.1 8.0 8.8 8.3 8.3 8.2 8.4 7.5 6.9 6.3 6.7 6.6 4.7 4.8 3.9
6.5 6.5 6.5 6.5 6.5 6.5 6.5 6.5 6.5 6.5 6.5 6.5 5.3 5.5 4.7 4.8 5.3 5.4 5.4 5.8 6.1 5.0 5.1 5.1 5.7 6.1 5.9 5.7 5.7 6.4 6.0 6.0 5.7 5.9 6.1 7.1 9.1 8.6 8.8 8.6 8.2 7.9 7.2 7.0 6.6 6.8 5.0 4.6 4.4
6.4 6.5 6.5 6.5 6.5 6.5 6.5 6.5 6.5 6.5 6.5 6.5 6.0 5.5 5.3 5.3 5.1 5.5 6.1 6.1 5.5 4.6 4.7 4.7 5.5 6.2 6.0 5.8 6.0 6.3 5.6 5.8 5.6 5.5 5.7 8.8 9.0 8.8 9.0 8.7 8.3 7.9 7.8 7.3 6.3 6.7 6.4 5.0 3.9
6.5 6.5 6.5 6.5 6.5 6.5 6.5 6.5 6.5 6.5 6.5 6.3 5.9 5.2 4.8 4.9 4.9 4.9 5.1 4.8 5.1 5.2 4.8 6.1 5.7 6.2 6.0 6.0 6.2 5.9 5.5 5.1 5.2 5.7 8.6 8.8 8.6 8.9 8.6 8.6 8.6 8.3 8.0 7.9 7.2 5.4 5.4 5.9 5.2
6.5 6.5 6.5 6.5 6.5 6.5 6.5 6.5 6.5 6.4 5.7 5.7 5.7 4.9 4.8 4.9 4.8 5.0 4.9 4.4 4.6 5.6 5.0 5.2 5.8 6.0 5.9 6.1 6.4 5.6 5.5 5.1 5.4 5.6 6.9 7.9 8.8 8.8 8.9 8.6 8.8 8.4 8.4 8.3 8.3 5.9 5.1 5.6 5.1
6.5 6.5 6.5 6.5 6.5 6.5 6.5 6.5 6.5 6.4 6.2 5.6 5.5 4.7 4.1 4.1 4.4 4.9 4.8 4.5 4.6 5.1 5.1 5.0 5.4 5.7 5.8 6.3 6.3 6.0 5.9 5.8 5.8 5.8 5.8 6.6 8.1 8.8 8.3 7.9 8.4 8.3 8.5 8.5 8.5 6.1 5.0 5.5 5.1
6.5 6.5 6.5 6.5 6.5 6.5 6.5 6.5 6.5 6.5 6.5 6.2 4.6 3.5 3.2 3.4 3.9 4.5 4.5 4.9 5.0 5.0 4.7 4.6 5.2 5.7 5.9 6.4 5.9 6.3 5.6 6.0 5.9 5.8 5.9 6.1 6.7 8.1 7.8 8.0 7.8 7.7 8.3 8.3 7.6 5.6 5.1 5.7 5.4
6.5 6.5 6.5 6.5 6.5 6.5 6.5 6.5 6.5 6.5 6.5 6.5 1.7 2.7 2.2 2.6 3.2 3.7 4.1 4.9 4.9 4.7 4.5 4.6 5.0 5.7 6.0 6.2 5.9 5.7 5.5 6.2 6.1 6.4 6.4 6.1 6.6 7.6 7.9 8.0 7.9 7.3 7.8 8.0 6.7 5.3 5.5 5.5 6.1
6.5 6.5 6.5 6.5 6.5 6.5 6.5 6.5 6.5 4.6 4.4 4.1 3.6 3.2 2.9 3.2 3.3 3.6 5.1 5.0 5.0 4.8 4.8 4.9 5.2 6.0 6.3 6.4 6.2 6.3 6.1 5.9 6.5 6.5 5.9 6.1 6.2 7.0 7.7 7.6 7.8 7.3 7.7 7.3 6.3 5.9 5.6 5.8 6.3
Wind_Speed
22 17 5 3 4 7 15 12 20 26 8 18 20 23 23 15 7 6 5 7 17 20 22 27 33 34 34 34 33 32 31 30 17 2 2 2 2 4 5 5 6 7 6 6 6 7 5 9 14
13 9 2 1 5 6 7 13 21 20 14 14 18 14 13 12 13 2 4 11 20 21 23 27 33 34 32 32 33 32 32 31 28 14 4 4 5 6 7 7 7 7 6 7 6 7 8 10 14
11 7 3 4 6 6 5 16 12 15 23 14 7 14 8 8 11 6 6 16 19 20 23 28 32 34 32 29 31 33 32 31 31 27 12 7 8 9 9 9 7 7 9 9 9 8 9 13 15
4 4 4 7 13 13 13 12 16 9 13 16 13 13 11 10 7 7 13 19 17 20 23 29 32 35 34 31 30 31 32 32 30 31 32 11 10 11 12 11 10 8 10 11 12 10 12 14 15
2 1 5 6 21 10 16 17 17 23 7 16 9 11 10 11 10 11 12 19 16 20 24 28 34 34 34 32 32 26 28 30 32 31 31 31 13 13 14 14 13 11 10 12 13 14 14 16 17
4 2 7 8 14 11 14 17 20 18 20 17 19 11 10 7 14 8 13 14 24 20 23 27 32 34 32 30 32 29 25 29 32 33 32 30 27 15 14 15 15 13 12 13 14 16 16 17 19
4 5 9 11 9 13 10 15 20 20 19 20 9 11 4 13 13 9 9 16 18 19 19 25 30 32 32 30 31 31 29 26 28 31 34 31 28 29 17 16 17 16 14 13 16 17 18 19 21
3 5 4 6 6 8 9 20 15 17 20 8 4 7 7 8 11 9 9 8 11 18 17 22 29 30 28 27 31 31 30 27 28 27 32 30 27 29 29 24 19 19 17 16 16 18 19 21 22
4 6 5 4 5 5 15 18 22 19 19 17 13 10 8 11 10 9 7 8 9 11 18 16 25 29 27 27 27 27 27 26 25 20 29 27 22 23 27 28 23 21 20 19 17 17 20 22 23
6 5 5 9 15 16 18 19 15 10 16 13 11 11 11 10 10 9 11 10 12 13 14 15 21 26 24 24 25 24 26 24 21 12 22 20 19 23 25 26 27 28 22 22 21 19 20 19 11
8 12 13 15 18 17 14 20 9 9 12 8 9 8 9 10 8 9 8 6 8 8 12 13 17 24 23 21 21 19 24 25 24 21 19 18 21 22 21 21 23 20 24 14 14 13 13 13 11
24 19 18 17 17 13 18 12 12 11 8 9 9 8 8 9 8 8 9 8 7 8 11 13 16 21 24 20 19 14 19 22 22 24 29 24 20 20 16 16 19 18 18 19 12 10 12 11 13
20 15 18 18 18 15 15 14 8 10 9 10 9 9 9 9 9 8 8 8 7 8 8 9 15 20 23 16 21 17 14 14 18 21 24 24 19 16 20 16 17 17 19 17 10 9 8 8 11
12 16 13 11 15 17 18 13 7 7 9 9 9 8 8 9 8 7 8 9 8 8 8 8 11 20 22 13 22 18 17 16 15 15 19 24 22 19 17 13 16 15 18 19 17 5 6 7 8
17 15 9 6 7 13 20 12 10 6 8 8 8 7 7 8 9 7 7 8 7 5 7 9 14 20 20 15 22 17 18 20 13 12 17 21 22 22 20 15 12 18 21 20 17 7 1 2 4
7 6 6 6 7 4 9 5 5 6 8 7 8 7 8 6 7 7 7 6 7 6 8 8 14 15 19 15 21 16 18 21 15 14 16 19 22 24 21 14 13 22 20 14 9 12 2 2 2
6 6 14 5 7 5 8 6 3 5 8 7 7 8 8 8 8 6 7 7 7 6 7 8 8 9 13 16 18 17 20 20 19 16 17 20 21 23 21 17 18 21 17 13 12 9 10 4 3
2 9 7 6 4 15 11 7 5 6 9 7 7 7 7 7 5 5 6 6 7 6 7 7 7 9 11 12 14 14 17 16 19 19 19 23 22 22 20 18 19 20 9 10 11 13 11 9 3
13 15 10 5 1 8 9 8 8 6 6 6 6 6 6 6 6 7 7 7 8 7 8 7 8 7 4 6 9 9 10 5 10 18 22 26 22 22 20 18 18 19 11 12 11 10 12 9 5
10 16 8 5 0 3 9 8 7 7 5 6 6 6 7 7 8 7 8 7 7 7 7 7 7 8 5 4 4 5 8 3 10 17 17 23 24 25 19 17 15 16 11 11 12 13 10 6 8
9 5 5 7 3 3 5 4 6 5 4 6 6 6 7 7 7 7 8 7 7 7 5 6 6 7 5 7 5 7 8 4 6 9 8 18 21 23 23 22 18 15 12 10 11 11 11 8 9
4 6 8 7 5 2 5 2 4 5 7 7 7 8 7 8 7 7 7 7 6 3 4 5 5 6 6 9 5 6 6 4 4 6 9 15 19 20 21 21 20 13 12 11 11 9 10 8 9
4 4 5 4 4 5 6 4 4 6 5 6 7 7 7 8 7 8 8 7 6 4 3 4 5 6 5 6 6 6 4 3 3 6 10 10 16 18 18 21 19 14 10 10 12 11 9 8 7
6 4 1 3 3 2 5 5 5 3 4 4 4 6 7 8 8 8 7 8 6 5 4 4 6 5 6 6 7 8 7 8 7 8 7 10 10 13 16 19 18 16 12 10 10 12 10 9 9
2 5 3 4 3 5 8 3 6 6 7 4 5 7 8 8 7 8 9 8 8 5 4 4 6 6 7 7 7 9 7 7 7 7 8 11 10 10 9 15 13 11 14 14 14 11 11 10 8
3 4 4 5 1 3 3 3 5 7 8 7 7 6 8 8 7 9 9 8 8 6 5 6 7 7 7 7 7 5 5 2 2 4 5 6 7 8 15 14 16 15 16 14 16 9 10 11 9
3 4 2 4 4 4 3 4 2 8 7 7 7 7 7 8 8 10 10 8 7 6 6 6 7 6 7 7 6 4 2 3 4 6 5 4 8 10 15 16 14 16 15 14 13 10 13 11 11
4 2 4 3 2 3 5 4 4 2 1 5 6 6 8 8 9 10 8 6 5 5 5 7 6 6 6 7 6 6 7 6 6 5 6 6 8 13 13 12 12 12 13 12 12 12 13 13 9
4 3 5 4 3 4 1 6 4 5 4 5 7 8 10 10 10 10 7 5 6 6 7 6 7 7 7 7 5 6 6 8 8 5 5 6 10 14 11 12 11 11 10 9 12 14 15 14 13
5 5 4 4 5 2 3 6 4 4 6 6 8 9 8 9 11 7 5 6 7 7 6 6 6 6 6 6 4 6 7 7 8 7 6 11 9 14 13 13 10 11 12 10 12 14 15 14 14
Wind_Direction
315 322 304 353 53 68 48 40 62 33 68 68 64 82 93 61 21 77 288 15 22 15 3 4 6 8 8 7 5 5 5 2 344 261 290 266 156 135 130 132 129 129 132 143 148 149 169 137 129
309 319 24 347 80 73 46 51 57 49 37 97 61 72 55 62 36 11 41 32 32 18 6 3 5 7 9 8 6 6 3 2 358 334 227 232 209 188 175 173 164 161 163 162 173 173 164 147 140
302 186 63 99 56 5 97 30 39 59 39 47 100 57 53 347 8 356 41 42 34 20 11 5 7 6 7 9 9 7 4 3 1 355 307 233 222 204 196 190 190 190 182 176 182 180 157 158 156
309 359 5 80 90 44 75 41 36 48 38 36 124 71 73 38 354 9 36 41 37 19 14 8 8 7 7 5 10 7 6 6 5 3 3 285 240 221 206 202 201 210 198 184 186 183 172 169 172
223 358 72 90 68 64 62 53 56 54 66 32 87 86 74 25 358 55 46 41 37 21 17 12 8 6 5 6 5 10 10 8 8 5 1 0 301 236 221 207 211 200 209 194 194 183 188 177 186
359 89 83 77 71 74 57 66 60 62 45 32 87 88 59 16 16 37 51 49 42 25 20 16 11 8 4 4 6 7 7 12 8 6 1 358 353 301 232 218 214 216 206 201 198 192 193 188 194
45 59 83 106 89 61 60 74 70 67 56 33 50 61 32 30 15 30 44 51 48 31 25 20 14 9 3 0 4 6 7 10 12 8 4 359 0 1 312 230 219 215 212 204 203 199 188 200 200
47 79 53 39 75 60 87 74 74 64 48 74 52 48 23 21 15 27 29 44 43 32 27 24 16 10 6 9 4 2 6 8 5 10 4 2 3 1 348 329 228 218 210 204 211 201 194 205 206
25 59 68 82 69 86 42 82 76 69 75 63 62 66 51 43 20 25 22 28 37 32 23 26 18 10 7 9 1 357 3 3 358 3 13 356 4 5 351 338 336 226 214 206 204 207 199 207 210
77 79 60 104 101 82 63 52 75 74 63 60 61 51 49 41 27 23 24 26 29 29 19 21 22 12 2 7 3 5 3 352 344 354 20 359 0 13 358 342 346 354 233 213 200 202 212 203 214
23 89 88 89 101 92 85 74 61 74 58 60 71 58 51 44 33 26 20 26 32 24 18 11 24 16 5 1 0 4 5 1 353 1 5 3 1 11 1 352 340 343 339 218 205 197 209 193 200
77 79 86 89 83 89 80 75 68 83 96 80 82 73 63 48 34 28 17 17 30 28 14 4 21 15 5 0 356 356 7 6 4 9 23 10 1 12 349 356 342 336 343 319 193 199 197 208 200
94 96 93 92 85 92 92 80 76 62 81 79 72 73 68 59 41 15 19 10 34 32 11 359 18 14 2 356 1 346 3 8 7 17 19 16 9 2 348 354 336 344 342 318 287 194 195 209 206
129 110 110 112 111 100 87 64 76 57 77 75 73 73 75 81 66 27 16 8 21 23 20 1 15 6 358 355 1 349 348 359 10 26 20 21 12 1 350 342 337 342 341 323 316 245 187 206 209
122 120 120 137 136 123 104 59 61 31 81 84 77 68 76 86 64 50 36 25 25 8 16 8 17 6 355 1 359 350 347 351 4 29 29 22 16 4 351 348 344 347 331 326 323 288 295 248 218
144 108 97 360 128 46 85 87 50 67 65 71 77 62 58 56 69 52 51 39 19 25 19 11 16 5 358 13 353 354 353 346 338 28 40 23 19 7 356 350 349 344 338 347 334 344 319 301 282
207 118 121 86 73 71 79 110 83 77 62 45 55 56 50 36 35 39 46 45 14 34 22 18 12 3 3 8 355 350 348 345 342 30 27 14 11 7 2 357 346 345 344 345 355 332 320 234 231
227 105 77 92 37 95 96 122 111 63 78 52 48 50 45 39 19 36 38 34 12 39 26 28 14 1 14 3 5 353 348 348 14 2 20 16 2 359 360 1 351 348 346 347 341 346 331 309 214
97 99 105 100 357 97 124 131 140 116 96 85 67 50 39 38 14 27 16 23 15 31 29 25 16 2 20 4 7 356 343 353 11 5 18 7 352 355 356 359 354 348 345 348 347 340 338 318 315
61 105 104 85 321 138 141 156 151 142 162 142 107 61 54 31 21 13 11 18 23 35 31 22 15 5 16 6 360 352 337 5 4 3 12 359 353 347 351 357 354 349 343 346 354 348 349 308 351
35 76 122 129 199 67 155 151 153 183 153 111 78 70 48 49 24 9 14 10 26 31 28 32 14 0 25 4 358 352 342 358 359 0 2 359 353 347 350 358 350 351 348 344 345 352 346 329 323
68 332 99 131 153 185 62 247 155 145 100 74 54 51 42 35 21 9 13 3 2 350 29 37 10 8 22 7 11 356 350 6 356 344 351 351 350 351 353 350 342 348 348 343 337 345 337 331 324
141 216 126 208 103 74 346 77 270 86 54 44 38 49 40 30 30 9 1 351 329 348 12 44 17 20 18 8 16 0 14 4 353 8 353 343 348 349 348 349 339 339 347 342 337 331 337 328 313
167 116 220 330 98 42 221 129 276 153 135 51 31 44 40 27 15 4 342 327 314 342 16 38 24 16 21 11 9 358 37 21 16 355 349 347 345 346 348 346 345 337 341 339 339 332 323 323 311
253 107 2 5 8 219 200 176 232 126 101 87 44 43 29 19 4 347 319 316 313 341 38 32 24 22 19 13 2 46 44 31 5 341 345 346 344 342 340 343 340 338 333 334 334 335 330 322 317
168 130 146 188 228 281 153 233 243 133 99 66 50 47 23 352 340 319 303 305 313 351 56 36 30 26 18 11 2 74 57 44 326 300 326 334 337 334 329 332 334 328 330 333 342 335 333 326 312
347 72 72 92 335 52 236 341 346 130 68 46 36 21 339 316 312 300 301 307 337 31 52 52 40 26 18 1 3 32 341 306 295 303 300 314 330 331 332 329 332 333 333 340 344 334 330 325 323
78 41 70 1 98 285 289 233 222 100 15 18 333 323 298 289 289 290 299 319 29 50 55 49 40 30 15 352 24 8 334 306 290 281 301 321 319 337 337 338 336 334 338 351 346 334 330 326 324
11 38 51 96 121 167 254 271 209 179 174 241 271 272 264 269 268 274 286 27 48 49 48 42 32 23 11 352 44 1 339 330 324 292 348 336 335 341 346 341 344 338 340 1 345 333 334 326 328
121 150 133 123 262 225 145 274 199 178 208 217 263 256 260 251 264 263 40 49 45 46 37 36 22 20 360 9 15 348 331 321 343 19 6 353 347 345 346 339 351 343 346 355 346 335 336 327 329